STARLINK-1420 (45695 NORAD) Tracking and Keplerian Element Data

This shows tracking and keplerian element data for the satellite.

Feedback or suggestion? Click here.




ElementValue
Catalog45695
NameSTARLINK-1420
Epoch Orbit182
Epoch Day191.91670139
Epoch Year2020
RAAN353.5164
Inclination52.9992
Eccentricity0.0001254
Argument of Perigee65.149
Mean Anonmoly144.0848
Mean Motion15.62732444
Decay Rate0.00058504
L11 45695U 20035AQ 20191.91670139 .00058504 00000-0 64067-3 0 9996
L22 45695 52.9992 353.5164 0001254 65.1490 144.0848 15.62732444 1829

Live tracking and technical data element details for STARLINK-1420 (NORAD 45695). STARLINK-1420 can be tracked NOW for your location showing map with azimuth and elevation plus other details from your city location.

Track the satellite on the map from your city or location and see movement details for azimuth, elevation, latitude, longitude, range, height, and movement on the map or in text.







IsCatalogInMostPopularTable: catalog: 45695, numindb: 5
Update: records affected: 1



GetName: 45695 STARLINK-1420

Hit Count: updated at: Fri, 10 Jul 2020 17:11:54 GMT